Estación Meteorológica Peña el Pijo (Robertgarden) [ 09/29/20 20:43:07 CEST ]

Fecha Hora Presion(HPa) Temp (°C) Humedad % Rocio (°C) Viento ( m/s) Direccion Lluvia 1Hora(mm) Lluvia 24H(mm) LLuvia Total(mm)
2020-May-11 01:09:10 1001.300 - - - - W     39.88
2020-May-11 02:09:04 1001.200 - - - - W     39.88
2020-May-11 03:09:33 1000.400 - - - - W     39.88
2020-May-11 04:09:40 1000.400 - - - - W     39.88
2020-May-11 05:09:29 1000.500 - - - - W     39.88
2020-May-11 06:09:23 1000.700 - - - - W     39.88
2020-May-11 07:09:34 1001.000 - - - - W     39.88
2020-May-11 08:09:26 1001.300 - - - - W     39.88
2020-May-11 09:09:34 1001.500 - - - - W     39.88
2020-May-11 10:09:44 1002.100 - - - - W     39.88
2020-May-11 11:09:11 1002.400 - - - - W     39.88
2020-May-11 12:09:01 1003.000 - - - - W     39.88
2020-May-11 13:09:16 1002.900 - - - - W     39.88
2020-May-11 14:09:13 1002.900 - - - - W     39.88
2020-May-11 15:09:25 1002.900 - - - - W     39.88
2020-May-11 16:09:13 1002.500 - - - - W     39.88
2020-May-11 17:09:22 1002.700 - - - - W     39.88
2020-May-11 18:09:04 1003.000 - - - - W     39.88
2020-May-11 19:09:21 1002.800 - - - - W     39.88
2020-May-11 20:09:25 1002.700 - - - - W     39.88
2020-May-11 21:08:48 1003.000 - - - - W     39.88
2020-May-11 22:08:54 1003.700 - - - - W     39.88
2020-May-11 23:09:16 1004.600 - - - - W     39.88

Temperatura Máxima:    Temperatura Mínima:
Presión Máxima:1004.600 Hpa    Presión Mínima:1000.400 Hpa


Volver